Time,TemperatureF,DewpointF,PressureIn,WindDirection,WindDirectionDegrees,WindSpeedMPH,WindSpeedGustMPH,Humidity,HourlyPrecipIn,Conditions,Clouds,dailyrainin,SoftwareType,DateUTC
2013-04-16 00:03:00,53.4,45.1,30.13,SE,135,0.0,0.0,73,0.00,,,0.00,WUHU216HW,2013-04-16 04:03:00,
2013-04-16 00:09:00,53.2,44.7,30.14,SE,135,0.0,0.0,73,0.00,,,0.00,WUHU216HW,2013-04-16 04:09:00,
2013-04-16 00:14:00,53.0,44.6,30.13,SE,135,0.0,0.0,73,0.00,,,0.00,WUHU216HW,2013-04-16 04:14:00,
2013-04-16 00:19:00,52.8,44.4,30.13,SE,135,0.0,0.0,73,0.00,,,0.00,WUHU216HW,2013-04-16 04:19:00,
2013-04-16 00:25:00,52.5,44.1,30.13,SE,135,0.0,0.0,73,0.00,,,0.00,WUHU216HW,2013-04-16 04:25:00,
2013-04-16 00:30:00,52.3,44.3,30.13,SE,135,0.0,0.0,74,0.00,,,0.00,WUHU216HW,2013-04-16 04:30:00,
2013-04-16 00:35:00,52.3,44.3,30.13,SE,135,0.0,0.0,74,0.00,,,0.00,WUHU216HW,2013-04-16 04:35:00,
2013-04-16 00:40:00,52.1,44.4,30.13,SE,135,0.0,0.0,75,0.00,,,0.00,WUHU216HW,2013-04-16 04:40:00,
2013-04-16 00:46:00,51.9,44.3,30.13,SE,135,0.0,0.0,75,0.00,,,0.00,WUHU216HW,2013-04-16 04:46:00,
2013-04-16 00:52:00,51.9,44.3,30.13,SE,135,0.0,0.0,75,0.00,,,0.00,WUHU216HW,2013-04-16 04:52:00,
2013-04-16 00:57:00,51.8,44.1,30.13,SE,135,0.0,0.0,75,0.00,,,0.00,WUHU216HW,2013-04-16 04:57:00,
2013-04-16 01:03:00,51.6,43.9,30.13,SE,135,0.0,0.0,75,0.00,,,0.00,WUHU216HW,2013-04-16 05:03:00,
2013-04-16 01:08:00,51.6,44.3,30.13,SE,135,0.0,0.0,76,0.00,,,0.00,WUHU216HW,2013-04-16 05:08:00,
2013-04-16 01:14:00,51.6,44.3,30.13,SE,135,0.0,0.0,76,0.00,,,0.00,WUHU216HW,2013-04-16 05:14:00,
2013-04-16 01:19:00,51.4,44.1,30.13,SE,135,0.0,0.0,76,0.00,,,0.00,WUHU216HW,2013-04-16 05:19:00,
2013-04-16 01:24:00,51.4,44.1,30.13,SE,135,0.0,0.0,76,0.00,,,0.00,WUHU216HW,2013-04-16 05:24:00,
2013-04-16 01:29:00,51.0,44.1,30.13,SE,135,0.0,0.0,77,0.00,,,0.00,WUHU216HW,2013-04-16 05:29:00,
2013-04-16 01:35:00,51.0,44.1,30.13,SE,135,0.0,0.0,77,0.00,,,0.00,WUHU216HW,2013-04-16 05:35:00,
2013-04-16 01:40:00,50.9,43.9,30.13,SE,135,0.0,0.0,77,0.00,,,0.00,WUHU216HW,2013-04-16 05:40:00,
2013-04-16 01:46:00,50.7,43.7,30.13,SE,135,0.0,0.0,77,0.00,,,0.00,WUHU216HW,2013-04-16 05:46:00,
2013-04-16 01:52:00,50.7,43.7,30.13,SE,135,0.0,0.0,77,0.00,,,0.00,WUHU216HW,2013-04-16 05:52:00,
2013-04-16 01:58:00,50.7,44.0,30.13,SE,135,0.0,0.0,78,0.00,,,0.00,WUHU216HW,2013-04-16 05:58:00,
2013-04-16 02:09:00,50.5,43.9,30.12,SE,135,0.0,0.0,78,0.00,,,0.00,WUHU216HW,2013-04-16 06:09:00,
2013-04-16 02:15:00,50.5,43.9,30.12,SE,135,0.0,0.0,78,0.00,,,0.00,WUHU216HW,2013-04-16 06:15:00,
2013-04-16 02:21:00,50.3,44.0,30.12,SE,135,0.0,0.0,79,0.00,,,0.00,WUHU216HW,2013-04-16 06:21:00,
2013-04-16 02:27:00,50.1,43.8,30.12,SE,135,0.0,0.0,79,0.00,,,0.00,WUHU216HW,2013-04-16 06:27:00,
2013-04-16 02:33:00,50.1,43.8,30.12,SE,135,0.0,0.0,79,0.00,,,0.00,WUHU216HW,2013-04-16 06:33:00,
2013-04-16 02:38:00,50.1,43.8,30.11,SE,135,0.0,0.0,79,0.00,,,0.00,WUHU216HW,2013-04-16 06:38:00,
2013-04-16 02:43:00,49.8,43.5,30.11,SE,135,0.0,0.0,79,0.00,,,0.00,WUHU216HW,2013-04-16 06:43:00,
2013-04-16 02:49:00,49.8,43.8,30.11,SE,135,0.0,0.0,80,0.00,,,0.00,WUHU216HW,2013-04-16 06:49:00,
2013-04-16 02:55:00,49.8,43.8,30.11,SE,135,0.0,0.0,80,0.00,,,0.00,WUHU216HW,2013-04-16 06:55:00,
2013-04-16 03:00:00,49.6,43.7,30.11,SE,135,0.0,0.0,80,0.00,,,0.00,WUHU216HW,2013-04-16 07:00:00,
2013-04-16 03:05:00,49.6,43.7,30.10,SE,135,0.0,0.0,80,0.00,,,0.00,WUHU216HW,2013-04-16 07:05:00,
2013-04-16 03:11:00,49.6,43.7,30.10,SE,135,0.0,0.0,80,0.00,,,0.00,WUHU216HW,2013-04-16 07:11:00,
2013-04-16 03:16:00,49.2,43.3,30.11,SE,135,0.0,0.0,80,0.00,,,0.00,WUHU216HW,2013-04-16 07:16:00,
2013-04-16 03:21:00,49.2,43.6,30.11,SE,135,0.0,0.0,81,0.00,,,0.00,WUHU216HW,2013-04-16 07:21:00,
2013-04-16 03:27:00,49.2,43.6,30.11,SE,135,0.0,0.0,81,0.00,,,0.00,WUHU216HW,2013-04-16 07:27:00,
2013-04-16 03:33:00,49.2,43.6,30.11,SE,135,0.0,0.0,81,0.00,,,0.00,WUHU216HW,2013-04-16 07:33:00,
2013-04-16 03:38:00,49.2,43.6,30.11,SE,135,0.0,0.0,81,0.00,,,0.00,WUHU216HW,2013-04-16 07:38:00,
2013-04-16 03:43:00,49.2,43.6,30.11,SE,135,0.0,0.0,81,0.00,,,0.00,WUHU216HW,2013-04-16 07:43:00,
2013-04-16 03:48:00,49.2,43.6,30.10,SE,135,0.0,0.0,81,0.00,,,0.00,WUHU216HW,2013-04-16 07:48:00,
2013-04-16 03:54:00,49.1,43.4,30.10,SE,135,0.0,0.0,81,0.00,,,0.00,WUHU216HW,2013-04-16 07:54:00,
2013-04-16 03:59:00,48.9,43.2,30.11,SE,135,0.0,0.0,81,0.00,,,0.00,WUHU216HW,2013-04-16 07:59:00,
2013-04-16 04:04:00,48.9,43.6,30.11,SE,135,0.0,0.0,82,0.00,,,0.00,WUHU216HW,2013-04-16 08:04:00,
2013-04-16 04:09:00,48.9,43.6,30.11,SE,135,0.0,0.0,82,0.00,,,0.00,WUHU216HW,2013-04-16 08:09:00,
2013-04-16 04:15:00,48.7,43.4,30.10,SE,135,0.0,0.0,82,0.00,,,0.00,WUHU216HW,2013-04-16 08:15:00,
2013-04-16 04:20:00,48.7,43.4,30.11,SE,135,0.0,0.0,82,0.00,,,0.00,WUHU216HW,2013-04-16 08:20:00,
2013-04-16 04:25:00,48.7,43.4,30.10,SE,135,0.0,0.0,82,0.00,,,0.00,WUHU216HW,2013-04-16 08:25:00,
2013-04-16 04:31:00,48.7,43.4,30.10,SE,135,0.0,0.0,82,0.00,,,0.00,WUHU216HW,2013-04-16 08:31:00,
2013-04-16 04:37:00,48.5,43.2,30.10,SE,135,0.0,0.0,82,0.00,,,0.00,WUHU216HW,2013-04-16 08:37:00,
2013-04-16 04:43:00,48.3,43.3,30.10,SE,135,0.0,0.0,83,0.00,,,0.00,WUHU216HW,2013-04-16 08:43:00,
2013-04-16 04:48:00,48.3,43.3,30.10,SE,135,0.0,0.0,83,0.00,,,0.00,WUHU216HW,2013-04-16 08:48:00,
2013-04-16 04:53:00,48.2,43.2,30.10,SE,135,0.0,0.0,83,0.00,,,0.00,WUHU216HW,2013-04-16 08:53:00,
2013-04-16 04:59:00,48.0,43.0,30.10,SE,135,0.0,0.0,83,0.00,,,0.00,WUHU216HW,2013-04-16 08:59:00,
2013-04-16 05:04:00,48.0,43.0,30.10,SE,135,0.0,0.0,83,0.00,,,0.00,WUHU216HW,2013-04-16 09:04:00,
2013-04-16 05:09:00,48.0,43.0,30.10,SE,135,0.0,0.0,83,0.00,,,0.00,WUHU216HW,2013-04-16 09:09:00,
2013-04-16 05:14:00,47.8,42.8,30.10,SE,135,0.0,0.0,83,0.00,,,0.00,WUHU216HW,2013-04-16 09:14:00,
2013-04-16 05:20:00,47.8,42.8,30.11,SE,135,0.0,0.0,83,0.00,,,0.00,WUHU216HW,2013-04-16 09:20:00,
2013-04-16 05:25:00,47.8,43.2,30.11,SE,135,0.0,0.0,84,0.00,,,0.00,WUHU216HW,2013-04-16 09:25:00,
2013-04-16 05:30:00,47.8,43.2,30.11,SE,135,0.0,0.0,84,0.00,,,0.00,WUHU216HW,2013-04-16 09:30:00,
2013-04-16 05:36:00,48.0,43.3,30.11,SE,135,0.0,0.0,84,0.00,,,0.00,WUHU216HW,2013-04-16 09:36:00,
2013-04-16 05:42:00,47.8,43.2,30.12,SE,135,0.0,0.0,84,0.00,,,0.00,WUHU216HW,2013-04-16 09:42:00,
2013-04-16 05:48:00,47.8,43.2,30.12,SE,135,0.0,0.0,84,0.00,,,0.00,WUHU216HW,2013-04-16 09:48:00,
2013-04-16 05:53:00,47.8,43.2,30.12,SE,135,0.0,0.0,84,0.00,,,0.00,WUHU216HW,2013-04-16 09:53:00,
2013-04-16 05:58:00,47.8,43.2,30.12,SE,135,0.0,0.0,84,0.00,,,0.00,WUHU216HW,2013-04-16 09:58:00,
2013-04-16 06:03:00,47.8,43.5,30.12,SE,135,0.0,0.0,85,0.00,,,0.00,WUHU216HW,2013-04-16 10:03:00,
2013-04-16 06:09:00,47.8,43.5,30.13,SE,135,0.0,0.0,85,0.00,,,0.00,WUHU216HW,2013-04-16 10:09:00,
2013-04-16 06:15:00,47.8,43.5,30.13,SE,135,0.0,0.0,85,0.00,,,0.00,WUHU216HW,2013-04-16 10:15:00,
2013-04-16 06:20:00,47.8,43.5,30.13,SE,135,0.0,0.0,85,0.00,,,0.00,WUHU216HW,2013-04-16 10:20:00,
2013-04-16 06:26:00,47.6,43.3,30.13,SE,135,0.0,0.0,85,0.00,,,0.00,WUHU216HW,2013-04-16 10:26:00,
2013-04-16 06:32:00,47.4,43.1,30.14,SE,135,0.0,0.0,85,0.00,,,0.00,WUHU216HW,2013-04-16 10:32:00,
2013-04-16 06:37:00,47.4,43.1,30.14,SE,135,0.0,0.0,85,0.00,,,0.00,WUHU216HW,2013-04-16 10:37:00,
2013-04-16 06:42:00,47.6,43.3,30.14,SE,135,0.0,0.0,85,0.00,,,0.00,WUHU216HW,2013-04-16 10:42:00,
2013-04-16 06:48:00,47.8,43.5,30.14,SE,135,0.0,0.0,85,0.00,,,0.00,WUHU216HW,2013-04-16 10:48:00,
2013-04-16 06:53:00,47.8,43.5,30.14,SE,135,0.0,0.0,85,0.00,,,0.00,WUHU216HW,2013-04-16 10:53:00,
2013-04-16 06:58:00,48.0,43.7,30.14,SSW,203,0.0,0.0,85,0.00,,,0.00,WUHU216HW,2013-04-16 10:58:00,
2013-04-16 07:03:00,48.3,44.3,30.14,SSW,203,0.0,0.0,86,0.00,,,0.00,WUHU216HW,2013-04-16 11:03:00,
2013-04-16 07:08:00,48.5,44.5,30.14,SSW,203,0.0,0.0,86,0.00,,,0.00,WUHU216HW,2013-04-16 11:08:00,
2013-04-16 07:14:00,48.7,44.7,30.14,SSW,203,0.0,0.0,86,0.00,,,0.00,WUHU216HW,2013-04-16 11:14:00,
2013-04-16 07:19:00,48.9,44.8,30.14,SSW,203,0.0,0.0,86,0.00,,,0.00,WUHU216HW,2013-04-16 11:19:00,
2013-04-16 07:25:00,49.1,45.0,30.14,SSW,203,0.0,0.0,86,0.00,,,0.00,WUHU216HW,2013-04-16 11:25:00,
2013-04-16 07:30:00,49.6,45.5,30.15,SSW,203,0.0,0.0,86,0.00,,,0.00,WUHU216HW,2013-04-16 11:30:00,
2013-04-16 07:35:00,49.8,46.8,30.15,SSW,203,0.0,0.0,88,0.00,,,0.00,WUHU216HW,2013-04-16 11:35:00,
2013-04-16 07:41:00,50.9,47.4,30.15,SSW,203,0.0,0.0,88,0.00,,,0.00,WUHU216HW,2013-04-16 11:41:00,
2013-04-16 07:46:00,51.9,48.4,30.15,SW,225,0.0,0.0,88,0.00,,,0.00,WUHU216HW,2013-04-16 11:46:00,
2013-04-16 07:52:00,52.7,49.7,30.16,SW,225,0.0,0.0,88,0.00,,,0.00,WUHU216HW,2013-04-16 11:52:00,
2013-04-16 07:57:00,53.9,50.4,30.16,SW,225,0.0,0.0,88,0.00,,,0.00,WUHU216HW,2013-04-16 11:57:00,
2013-04-16 08:02:00,55.0,51.1,30.16,SW,225,0.0,0.0,87,0.00,,,0.00,WUHU216HW,2013-04-16 12:02:00,
2013-04-16 08:08:00,55.9,51.7,30.16,SW,225,0.0,0.0,86,0.00,,,0.00,WUHU216HW,2013-04-16 12:08:00,
2013-04-16 08:13:00,56.3,51.8,30.16,ENE,68,0.0,0.0,85,0.00,,,0.00,WUHU216HW,2013-04-16 12:13:00,
2013-04-16 08:19:00,57.3,52.5,30.16,ENE,68,0.0,0.0,84,0.00,,,0.00,WUHU216HW,2013-04-16 12:19:00,
2013-04-16 08:24:00,57.7,52.5,30.16,ENE,68,0.0,0.0,83,0.00,,,0.00,WUHU216HW,2013-04-16 12:24:00,
2013-04-16 08:29:00,58.2,53.1,30.16,ENE,68,0.0,0.0,83,0.00,,,0.00,WUHU216HW,2013-04-16 12:29:00,
2013-04-16 08:35:00,58.8,53.3,30.16,ENE,68,0.0,0.0,82,0.00,,,0.00,WUHU216HW,2013-04-16 12:35:00,
2013-04-16 08:46:00,59.9,53.7,30.17,ENE,68,0.0,0.0,80,0.00,,,0.00,WUHU216HW,2013-04-16 12:46:00,
2013-04-16 08:51:00,60.6,54.5,30.17,ENE,68,0.0,0.0,80,0.00,,,0.00,WUHU216HW,2013-04-16 12:51:00,
2013-04-16 08:56:00,61.1,54.6,30.17,ESE,113,0.0,0.0,79,0.00,,,0.00,WUHU216HW,2013-04-16 12:56:00,
2013-04-16 09:02:00,61.8,54.5,30.17,ESE,113,0.0,0.0,77,0.00,,,0.00,WUHU216HW,2013-04-16 13:02:00,
2013-04-16 09:08:00,62.2,54.5,30.17,SE,135,0.0,0.0,76,0.00,,,0.00,WUHU216HW,2013-04-16 13:08:00,
2013-04-16 09:14:00,62.6,54.5,30.17,East,90,0.0,0.0,75,0.00,,,0.00,WUHU216HW,2013-04-16 13:14:00,
2013-04-16 09:19:00,62.7,54.6,30.17,SSE,158,0.0,2.4,75,0.00,,,0.00,WUHU216HW,2013-04-16 13:19:00,
2013-04-16 09:24:00,62.7,54.6,30.17,SSE,158,0.0,6.4,75,0.00,,,0.00,WUHU216HW,2013-04-16 13:24:00,
2013-04-16 09:29:00,62.9,54.5,30.17,ENE,68,0.0,6.4,74,0.00,,,0.00,WUHU216HW,2013-04-16 13:29:00,
2013-04-16 09:35:00,63.1,54.6,30.17,SSW,203,1.1,1.1,74,0.00,,,0.00,WUHU216HW,2013-04-16 13:35:00,
2013-04-16 09:41:00,63.3,54.8,30.17,SSW,203,0.0,1.1,74,0.00,,,0.00,WUHU216HW,2013-04-16 13:41:00,
2013-04-16 09:47:00,63.6,54.8,30.17,SSE,158,1.3,1.3,73,0.00,,,0.00,WUHU216HW,2013-04-16 13:47:00,
2013-04-16 09:53:00,64.5,55.7,30.16,NE,45,0.0,1.3,73,0.00,,,0.00,WUHU216HW,2013-04-16 13:53:00,
2013-04-16 09:58:00,65.3,56.4,30.16,ESE,113,0.0,0.0,73,0.00,,,0.00,WUHU216HW,2013-04-16 13:58:00,
2013-04-16 10:04:00,66.0,56.6,30.16,South,180,0.0,0.6,72,0.00,,,0.00,WUHU216HW,2013-04-16 14:04:00,
2013-04-16 10:09:00,67.6,57.9,30.17,SSE,158,0.0,0.6,71,0.00,,,0.00,WUHU216HW,2013-04-16 14:09:00,
2013-04-16 10:15:00,68.5,57.9,30.16,WSW,248,0.0,0.0,69,0.00,,,0.00,WUHU216HW,2013-04-16 14:15:00,
2013-04-16 10:21:00,69.8,58.7,30.16,SE,135,0.0,0.0,68,0.00,,,0.00,WUHU216HW,2013-04-16 14:21:00,
2013-04-16 10:26:00,70.7,59.1,30.16,SSW,203,0.0,2.9,67,0.00,,,0.00,WUHU216HW,2013-04-16 14:26:00,
2013-04-16 10:32:00,71.7,59.3,30.17,West,270,0.0,2.9,65,0.00,,,0.00,WUHU216HW,2013-04-16 14:32:00,
2013-04-16 10:38:00,72.8,59.9,30.17,SE,135,0.0,0.0,64,0.00,,,0.00,WUHU216HW,2013-04-16 14:38:00,
2013-04-16 10:43:00,73.5,60.1,30.17,SE,135,4.2,9.1,63,0.00,,,0.00,WUHU216HW,2013-04-16 14:43:00,
2013-04-16 10:48:00,74.4,60.5,30.17,North,0,0.0,9.1,62,0.00,,,0.00,WUHU216HW,2013-04-16 14:48:00,
2013-04-16 10:54:00,74.4,60.1,30.17,NW,315,0.0,7.8,61,0.00,,,0.00,WUHU216HW,2013-04-16 14:54:00,
2013-04-16 11:00:00,75.0,60.6,30.18,NNE,23,0.0,0.0,61,0.00,,,0.00,WUHU216HW,2013-04-16 15:00:00,
2013-04-16 11:05:00,75.9,61.0,30.18,South,180,0.0,0.0,59,0.00,,,0.00,WUHU216HW,2013-04-16 15:05:00,
2013-04-16 11:10:00,76.4,61.0,30.17,SE,135,0.0,0.0,59,0.00,,,0.00,WUHU216HW,2013-04-16 15:10:00,
2013-04-16 11:16:00,77.0,61.0,30.18,South,180,0.0,4.0,58,0.00,,,0.00,WUHU216HW,2013-04-16 15:16:00,
2013-04-16 11:22:00,77.9,61.4,30.18,NW,315,0.0,4.0,57,0.00,,,0.00,WUHU216HW,2013-04-16 15:22:00,
2013-04-16 11:28:00,77.9,60.9,30.18,ESE,113,0.0,0.0,56,0.00,,,0.00,WUHU216HW,2013-04-16 15:28:00,
2013-04-16 11:34:00,78.0,61.0,30.18,SE,135,0.0,3.1,56,0.00,,,0.00,WUHU216HW,2013-04-16 15:34:00,
2013-04-16 11:39:00,78.4,61.4,30.18,West,270,0.0,4.0,56,0.00,,,0.00,WUHU216HW,2013-04-16 15:39:00,
2013-04-16 11:44:00,78.6,61.5,30.18,SW,225,6.2,6.2,56,0.00,,,0.00,WUHU216HW,2013-04-16 15:44:00,
2013-04-16 11:50:00,78.6,61.0,30.17,WSW,248,0.0,6.2,55,0.00,,,0.00,WUHU216HW,2013-04-16 15:50:00,
2013-04-16 11:56:00,78.6,61.0,30.17,SE,135,0.0,4.2,55,0.00,,,0.00,WUHU216HW,2013-04-16 15:56:00,
2013-04-16 12:01:00,79.5,61.8,30.17,SE,135,6.2,6.2,55,0.00,,,0.00,WUHU216HW,2013-04-16 16:01:00,
2013-04-16 12:06:00,80.0,61.8,30.17,WSW,248,8.7,8.7,54,0.00,,,0.00,WUHU216HW,2013-04-16 16:06:00,
2013-04-16 12:12:00,80.6,62.3,30.17,ENE,68,0.0,8.7,54,0.00,,,0.00,WUHU216HW,2013-04-16 16:12:00,
2013-04-16 12:18:00,81.1,62.3,30.17,West,270,2.4,2.4,53,0.00,,,0.00,WUHU216HW,2013-04-16 16:18:00,
2013-04-16 12:23:00,80.7,61.9,30.17,NW,315,2.9,2.9,53,0.00,,,0.00,WUHU216HW,2013-04-16 16:23:00,
2013-04-16 12:29:00,80.4,61.6,30.17,SE,135,0.0,4.4,53,0.00,,,0.00,WUHU216HW,2013-04-16 16:29:00,
2013-04-16 12:34:00,80.4,61.6,30.17,WSW,248,0.0,4.4,53,0.00,,,0.00,WUHU216HW,2013-04-16 16:34:00,
2013-04-16 12:39:00,80.4,61.6,30.17,West,270,0.0,0.0,53,0.00,,,0.00,WUHU216HW,2013-04-16 16:39:00,
2013-04-16 12:44:00,80.4,61.6,30.17,West,270,0.0,0.0,53,0.00,,,0.00,WUHU216HW,2013-04-16 16:44:00,
2013-04-16 12:50:00,80.4,61.6,30.17,North,0,0.0,2.4,53,0.00,,,0.00,WUHU216HW,2013-04-16 16:50:00,
2013-04-16 12:56:00,79.8,61.1,30.17,WSW,248,1.7,2.4,53,0.00,,,0.00,WUHU216HW,2013-04-16 16:56:00,
2013-04-16 13:02:00,79.5,60.8,30.17,WSW,248,0.0,1.7,53,0.00,,,0.00,WUHU216HW,2013-04-16 17:02:00,
2013-04-16 13:08:00,79.5,60.8,30.16,NW,315,0.0,1.7,53,0.00,,,0.00,WUHU216HW,2013-04-16 17:08:00,
2013-04-16 13:13:00,80.4,62.1,30.16,West,270,0.0,0.0,54,0.00,,,0.00,WUHU216HW,2013-04-16 17:13:00,
2013-04-16 13:19:00,81.5,62.6,30.16,SW,225,3.1,3.1,53,0.00,,,0.00,WUHU216HW,2013-04-16 17:19:00,
2013-04-16 13:25:00,82.5,63.6,30.15,North,0,0.0,3.1,53,0.00,,,0.00,WUHU216HW,2013-04-16 17:25:00,
2013-04-16 13:30:00,83.3,63.8,30.15,NW,315,0.0,0.0,52,0.00,,,0.00,WUHU216HW,2013-04-16 17:30:00,
2013-04-16 13:35:00,84.0,64.0,30.15,NE,45,0.0,5.1,51,0.00,,,0.00,WUHU216HW,2013-04-16 17:35:00,
2013-04-16 13:40:00,84.2,64.2,30.15,WNW,293,0.0,5.1,51,0.00,,,0.00,WUHU216HW,2013-04-16 17:40:00,
2013-04-16 13:46:00,83.4,62.9,30.15,NNW,338,0.0,0.0,50,0.00,,,0.00,WUHU216HW,2013-04-16 17:46:00,
2013-04-16 13:51:00,83.1,62.6,30.15,NW,315,0.0,0.0,50,0.00,,,0.00,WUHU216HW,2013-04-16 17:51:00,
2013-04-16 13:57:00,82.2,61.7,30.14,West,270,0.0,0.4,50,0.00,,,0.00,WUHU216HW,2013-04-16 17:57:00,
2013-04-16 14:02:00,81.8,61.9,30.14,NNW,338,0.0,0.4,51,0.00,,,0.00,WUHU216HW,2013-04-16 18:02:00,
2013-04-16 14:07:00,81.3,61.4,30.14,West,270,0.0,8.9,51,0.00,,,0.00,WUHU216HW,2013-04-16 18:07:00,
2013-04-16 14:13:00,80.9,61.7,30.14,West,270,0.0,8.9,52,0.00,,,0.00,WUHU216HW,2013-04-16 18:13:00,
2013-04-16 14:19:00,81.1,61.7,30.14,North,0,0.0,4.9,52,0.00,,,0.00,WUHU216HW,2013-04-16 18:19:00,
2013-04-16 14:24:00,80.9,62.1,30.14,SW,225,0.0,2.2,53,0.00,,,0.00,WUHU216HW,2013-04-16 18:24:00,
2013-04-16 14:29:00,80.7,61.9,30.15,WSW,248,5.3,5.3,53,0.00,,,0.00,WUHU216HW,2013-04-16 18:29:00,
2013-04-16 14:34:00,80.6,61.8,30.14,WSW,248,4.4,5.3,53,0.00,,,0.00,WUHU216HW,2013-04-16 18:34:00,
2013-04-16 14:40:00,80.4,61.6,30.13,NE,45,0.0,6.4,53,0.00,,,0.00,WUHU216HW,2013-04-16 18:40:00,
2013-04-16 14:45:00,80.6,61.9,30.13,SSW,203,0.0,6.7,53,0.00,,,0.00,WUHU216HW,2013-04-16 18:45:00,
2013-04-16 14:51:00,80.9,62.1,30.13,WNW,293,0.0,6.7,53,0.00,,,0.00,WUHU216HW,2013-04-16 18:51:00,
2013-04-16 14:56:00,81.3,62.4,30.12,South,180,0.0,0.0,53,0.00,,,0.00,WUHU216HW,2013-04-16 18:56:00,
2013-04-16 15:02:00,82.0,63.1,30.11,SE,135,0.0,0.0,53,0.00,,,0.00,WUHU216HW,2013-04-16 19:02:00,
2013-04-16 15:07:00,82.5,63.1,30.10,SSW,203,0.0,0.0,52,0.00,,,0.00,WUHU216HW,2013-04-16 19:07:00,
2013-04-16 15:13:00,83.1,63.6,30.10,SSE,158,0.0,3.5,52,0.00,,,0.00,WUHU216HW,2013-04-16 19:13:00,
2013-04-16 15:19:00,83.8,64.3,30.10,SW,225,0.0,3.5,52,0.00,,,0.00,WUHU216HW,2013-04-16 19:19:00,
2013-04-16 15:24:00,84.3,64.3,30.10,WNW,293,0.0,5.1,51,0.00,,,0.00,WUHU216HW,2013-04-16 19:24:00,
2013-04-16 15:30:00,84.5,64.0,30.10,SW,225,0.0,5.1,50,0.00,,,0.00,WUHU216HW,2013-04-16 19:30:00,
2013-04-16 15:35:00,84.7,64.1,30.10,South,180,0.0,5.1,50,0.00,,,0.00,WUHU216HW,2013-04-16 19:35:00,
2013-04-16 15:40:00,84.7,63.5,30.09,South,180,0.0,5.1,49,0.00,,,0.00,WUHU216HW,2013-04-16 19:40:00,
2013-04-16 15:45:00,85.1,63.8,30.09,ESE,113,7.8,7.8,49,0.00,,,0.00,WUHU216HW,2013-04-16 19:45:00,
2013-04-16 15:51:00,85.1,63.8,30.09,East,90,0.0,7.8,49,0.00,,,0.00,WUHU216HW,2013-04-16 19:51:00,
2013-04-16 15:56:00,85.2,64.0,30.09,SW,225,7.1,7.8,49,0.00,,,0.00,WUHU216HW,2013-04-16 19:56:00,
2013-04-16 16:02:00,85.2,63.8,30.09,WNW,293,0.0,7.1,49,0.00,,,0.00,WUHU216HW,2013-04-16 20:02:00,
2013-04-16 16:07:00,84.9,63.6,30.09,West,270,0.0,7.1,49,0.00,,,0.00,WUHU216HW,2013-04-16 20:07:00,
2013-04-16 16:12:00,84.9,63.6,30.09,SSW,203,0.0,6.0,49,0.00,,,0.00,WUHU216HW,2013-04-16 20:12:00,
2013-04-16 16:17:00,85.2,64.0,30.09,WSW,248,7.8,7.8,49,0.00,,,0.00,WUHU216HW,2013-04-16 20:17:00,
2013-04-16 16:22:00,85.6,63.7,30.08,WSW,248,0.0,7.8,48,0.00,,,0.00,WUHU216HW,2013-04-16 20:22:00,
2013-04-16 16:28:00,85.8,63.8,30.08,West,270,0.0,9.1,48,0.00,,,0.00,WUHU216HW,2013-04-16 20:28:00,
2013-04-16 16:33:00,85.8,63.2,30.08,SSW,203,6.9,9.1,47,0.00,,,0.00,WUHU216HW,2013-04-16 20:33:00,
2013-04-16 16:39:00,85.6,63.0,30.09,West,270,0.0,6.9,47,0.00,,,0.00,WUHU216HW,2013-04-16 20:39:00,
2013-04-16 16:44:00,85.2,62.7,30.09,West,270,0.0,6.9,47,0.00,,,0.00,WUHU216HW,2013-04-16 20:44:00,
2013-04-16 16:49:00,84.9,63.0,30.09,West,270,0.0,1.7,48,0.00,,,0.00,WUHU216HW,2013-04-16 20:49:00,
2013-04-16 16:54:00,85.2,63.3,30.09,WSW,248,0.0,1.7,48,0.00,,,0.00,WUHU216HW,2013-04-16 20:54:00,
2013-04-16 17:00:00,85.6,62.7,30.08,West,270,0.0,2.2,47,0.00,,,0.00,WUHU216HW,2013-04-16 21:00:00,
2013-04-16 17:05:00,84.9,63.0,30.09,WSW,248,0.0,2.2,48,0.00,,,0.00,WUHU216HW,2013-04-16 21:05:00,
2013-04-16 17:10:00,84.7,62.9,30.09,West,270,3.3,3.3,48,0.00,,,0.00,WUHU216HW,2013-04-16 21:10:00,
2013-04-16 17:15:00,84.5,62.7,30.08,WSW,248,0.0,3.3,48,0.00,,,0.00,WUHU216HW,2013-04-16 21:15:00,
2013-04-16 17:21:00,84.7,63.5,30.08,West,270,4.2,4.2,49,0.00,,,0.00,WUHU216HW,2013-04-16 21:21:00,
2013-04-16 17:26:00,84.9,62.4,30.09,WSW,248,0.0,10.5,47,0.00,,,0.00,WUHU216HW,2013-04-16 21:26:00,
2013-04-16 17:37:00,84.3,61.9,30.09,WSW,248,4.6,7.3,47,0.00,,,0.00,WUHU216HW,2013-04-16 21:37:00,
2013-04-16 17:42:00,84.3,62.5,30.09,WSW,248,0.0,4.6,48,0.00,,,0.00,WUHU216HW,2013-04-16 21:42:00,
2013-04-16 17:47:00,84.5,62.1,30.09,WSW,248,0.0,4.6,47,0.00,,,0.00,WUHU216HW,2013-04-16 21:47:00,
2013-04-16 17:53:00,84.0,61.6,30.10,West,270,3.8,4.9,47,0.00,,,0.00,WUHU216HW,2013-04-16 21:53:00,
2013-04-16 17:58:00,83.1,61.3,30.10,NW,315,0.0,4.9,48,0.00,,,0.00,WUHU216HW,2013-04-16 21:58:00,
2013-04-16 18:03:00,82.7,60.9,30.10,WNW,293,0.0,3.8,48,0.00,,,0.00,WUHU216HW,2013-04-16 22:03:00,
2013-04-16 18:08:00,82.5,61.4,30.09,West,270,3.1,3.1,49,0.00,,,0.00,WUHU216HW,2013-04-16 22:08:00,
2013-04-16 18:14:00,82.4,61.2,30.09,SW,225,0.0,3.3,49,0.00,,,0.00,WUHU216HW,2013-04-16 22:14:00,
2013-04-16 18:19:00,82.5,61.4,30.09,WNW,293,0.0,3.3,49,0.00,,,0.00,WUHU216HW,2013-04-16 22:19:00,
2013-04-16 18:25:00,82.9,61.7,30.09,West,270,0.0,0.0,49,0.00,,,0.00,WUHU216HW,2013-04-16 22:25:00,
2013-04-16 18:30:00,83.1,61.9,30.09,WSW,248,0.0,3.8,49,0.00,,,0.00,WUHU216HW,2013-04-16 22:30:00,
2013-04-16 18:35:00,83.1,61.9,30.09,West,270,0.0,3.8,49,0.00,,,0.00,WUHU216HW,2013-04-16 22:35:00,
2013-04-16 18:40:00,83.1,61.9,30.08,WNW,293,0.0,0.0,49,0.00,,,0.00,WUHU216HW,2013-04-16 22:40:00,
2013-04-16 18:45:00,82.9,61.7,30.08,WNW,293,0.0,0.0,49,0.00,,,0.00,WUHU216HW,2013-04-16 22:45:00,
2013-04-16 18:51:00,82.5,61.4,30.09,WNW,293,0.0,0.0,49,0.00,,,0.00,WUHU216HW,2013-04-16 22:51:00,
2013-04-16 18:57:00,82.0,61.5,30.09,West,270,0.0,0.0,50,0.00,,,0.00,WUHU216HW,2013-04-16 22:57:00,
2013-04-16 19:02:00,81.5,61.0,30.09,West,270,0.0,0.0,50,0.00,,,0.00,WUHU216HW,2013-04-16 23:02:00,
2013-04-16 19:07:00,81.1,61.2,30.09,West,270,0.0,0.0,51,0.00,,,0.00,WUHU216HW,2013-04-16 23:07:00,
2013-04-16 19:12:00,80.4,60.6,30.09,WNW,293,0.0,0.0,51,0.00,,,0.00,WUHU216HW,2013-04-16 23:12:00,
2013-04-16 19:17:00,79.8,60.1,30.09,WSW,248,0.0,0.0,51,0.00,,,0.00,WUHU216HW,2013-04-16 23:17:00,
2013-04-16 19:23:00,79.5,60.3,30.09,WSW,248,0.0,0.0,52,0.00,,,0.00,WUHU216HW,2013-04-16 23:23:00,
2013-04-16 19:28:00,78.9,59.8,30.08,WSW,248,0.0,0.0,52,0.00,,,0.00,WUHU216HW,2013-04-16 23:28:00,
2013-04-16 19:33:00,78.6,60.0,30.09,WSW,248,0.0,0.0,53,0.00,,,0.00,WUHU216HW,2013-04-16 23:33:00,
2013-04-16 19:39:00,77.9,59.3,30.09,WSW,248,0.0,0.0,53,0.00,,,0.00,WUHU216HW,2013-04-16 23:39:00,
2013-04-16 19:45:00,77.3,59.3,30.08,WSW,248,0.0,0.0,54,0.00,,,0.00,WUHU216HW,2013-04-16 23:45:00,
2013-04-16 19:50:00,76.8,59.3,30.09,WSW,248,0.0,0.0,55,0.00,,,0.00,WUHU216HW,2013-04-16 23:50:00,
2013-04-16 19:55:00,76.8,59.3,30.09,WSW,248,0.0,0.0,55,0.00,,,0.00,WUHU216HW,2013-04-16 23:55:00,
2013-04-16 20:00:00,76.2,59.3,30.09,WSW,248,0.0,0.0,56,0.00,,,0.00,WUHU216HW,2013-04-17 00:00:00,
2013-04-16 20:05:00,75.9,59.0,30.09,WSW,248,0.0,0.0,56,0.00,,,0.00,WUHU216HW,2013-04-17 00:05:00,
2013-04-16 20:10:00,75.7,58.9,30.11,WSW,248,0.0,0.0,56,0.00,,,0.00,WUHU216HW,2013-04-17 00:10:00,
2013-04-16 20:15:00,75.3,59.0,30.12,WSW,248,0.0,0.0,57,0.00,,,0.00,WUHU216HW,2013-04-17 00:15:00,
2013-04-16 20:21:00,75.0,59.7,30.13,NW,315,0.0,0.0,59,0.00,,,0.00,WUHU216HW,2013-04-17 00:21:00,
2013-04-16 20:27:00,73.5,61.5,30.15,West,270,3.5,9.1,66,0.00,,,0.00,WUHU216HW,2013-04-17 00:27:00,
2013-04-16 20:32:00,69.9,60.0,30.17,North,0,13.4,14.7,71,0.00,,,0.00,WUHU216HW,2013-04-17 00:32:00,
2013-04-16 20:37:00,67.8,59.2,30.17,NW,315,6.9,14.7,74,0.00,,,0.00,WUHU216HW,2013-04-17 00:37:00,
2013-04-16 20:43:00,65.4,58.0,30.19,North,0,7.1,10.5,77,0.06,,,0.06,WUHU216HW,2013-04-17 00:43:00,
2013-04-16 20:48:00,64.4,57.7,30.18,NNW,338,7.6,10.5,79,0.10,,,0.10,WUHU216HW,2013-04-17 00:48:00,
2013-04-16 20:54:00,63.3,57.3,30.17,North,0,3.5,9.3,81,0.13,,,0.13,WUHU216HW,2013-04-17 00:54:00,
2013-04-16 20:59:00,62.7,57.1,30.17,North,0,7.1,7.1,82,0.15,,,0.15,WUHU216HW,2013-04-17 00:59:00,
2013-04-16 21:10:00,62.2,56.9,30.18,NNW,338,5.1,6.4,83,0.17,,,0.17,WUHU216HW,2013-04-17 01:10:00,
2013-04-16 21:16:00,62.0,56.8,30.21,NE,45,0.0,5.1,83,0.19,,,0.19,WUHU216HW,2013-04-17 01:16:00,
2013-04-16 21:22:00,62.2,57.3,30.23,NW,315,6.7,6.7,84,0.20,,,0.20,WUHU216HW,2013-04-17 01:22:00,
2013-04-16 21:28:00,62.2,57.6,30.25,NW,315,0.0,6.7,85,0.20,,,0.20,WUHU216HW,2013-04-17 01:28:00,
2013-04-16 21:33:00,62.2,57.6,30.25,NNW,338,0.0,6.7,85,0.20,,,0.20,WUHU216HW,2013-04-17 01:33:00,
2013-04-16 21:39:00,62.0,57.4,30.26,NW,315,6.7,6.7,85,0.18,,,0.23,WUHU216HW,2013-04-17 01:39:00,
2013-04-16 21:44:00,61.8,57.6,30.26,NW,315,1.1,6.7,86,0.14,,,0.25,WUHU216HW,2013-04-17 01:44:00,
2013-04-16 21:49:00,61.5,57.3,30.26,NW,315,0.0,6.7,86,0.14,,,0.27,WUHU216HW,2013-04-17 01:49:00,
2013-04-16 21:55:00,61.3,57.1,30.25,North,0,0.0,1.7,86,0.16,,,0.31,WUHU216HW,2013-04-17 01:55:00,
2013-04-16 22:06:00,61.1,56.9,30.24,NW,315,0.0,0.0,86,0.16,,,0.33,WUHU216HW,2013-04-17 02:06:00,
2013-04-16 22:11:00,61.1,56.9,30.25,NW,315,0.0,0.0,86,0.17,,,0.35,WUHU216HW,2013-04-17 02:11:00,
2013-04-16 22:17:00,61.1,56.6,30.25,NW,315,0.0,0.0,85,0.19,,,0.37,WUHU216HW,2013-04-17 02:17:00,
2013-04-16 22:22:00,61.1,56.6,30.26,NW,315,0.0,0.0,85,0.17,,,0.37,WUHU216HW,2013-04-17 02:22:00,
2013-04-16 22:28:00,61.1,56.6,30.25,NW,315,0.0,0.0,85,0.17,,,0.37,WUHU216HW,2013-04-17 02:28:00,
2013-04-16 22:33:00,61.1,56.6,30.24,NW,315,0.0,0.0,85,0.19,,,0.39,WUHU216HW,2013-04-17 02:33:00,
2013-04-16 22:38:00,61.1,56.6,30.23,NW,315,0.0,0.0,85,0.17,,,0.39,WUHU216HW,2013-04-17 02:38:00,
2013-04-16 22:43:00,60.9,56.4,30.23,NW,315,0.0,0.0,85,0.14,,,0.39,WUHU216HW,2013-04-17 02:43:00,
2013-04-16 22:48:00,61.1,56.6,30.23,NW,315,0.0,0.0,85,0.12,,,0.39,WUHU216HW,2013-04-17 02:48:00,
2013-04-16 22:54:00,60.9,56.4,30.23,NW,315,0.0,0.0,85,0.08,,,0.39,WUHU216HW,2013-04-17 02:54:00,
2013-04-16 22:59:00,60.9,56.4,30.22,NW,315,0.0,0.0,85,0.10,,,0.41,WUHU216HW,2013-04-17 02:59:00,
2013-04-16 23:05:00,60.9,56.4,30.23,NW,315,0.0,0.0,85,0.08,,,0.41,WUHU216HW,2013-04-17 03:05:00,
2013-04-16 23:10:00,60.9,56.4,30.22,NW,315,0.0,0.0,85,0.06,,,0.41,WUHU216HW,2013-04-17 03:10:00,
2013-04-16 23:15:00,60.9,56.3,30.22,NW,315,0.0,0.0,85,0.04,,,0.41,WUHU216HW,2013-04-17 03:15:00,
2013-04-16 23:21:00,60.6,56.1,30.22,NW,315,0.0,0.0,85,0.04,,,0.41,WUHU216HW,2013-04-17 03:21:00,
2013-04-16 23:26:00,60.6,56.1,30.22,NW,315,0.0,0.0,85,0.04,,,0.41,WUHU216HW,2013-04-17 03:26:00,
2013-04-16 23:32:00,60.6,56.1,30.21,NW,315,0.0,0.0,85,0.02,,,0.41,WUHU216HW,2013-04-17 03:32:00,
2013-04-16 23:42:00,60.6,56.1,30.21,NW,315,0.0,0.0,85,0.02,,,0.41,WUHU216HW,2013-04-17 03:42:00,
2013-04-16 23:47:00,60.4,55.9,30.21,NW,315,0.0,0.0,85,0.02,,,0.41,WUHU216HW,2013-04-17 03:47:00,
2013-04-16 23:53:00,60.4,55.9,30.21,NW,315,0.0,0.0,85,0.00,,,0.41,WUHU216HW,2013-04-17 03:53:00,
2013-04-16 23:58:00,60.0,55.5,30.21,NW,315,0.0,0.0,85,0.00,,,0.41,WUHU216HW,2013-04-17 03:58:00,